EW8735 Weather Reports


time (UTC)temp
C
wind
direction
speed
KPH
gust
KPH
rain 1hr
cm
rain 24hr
cm
rain mn
cm
humidity
%
barometer
mb
20260901080059 16 19 0.0 0.0 0.00 0.00 0.00 43 1004.0
20260901074601 16 19 0.0 0.0 0.00 0.00 0.00 43 1003.8
20260901073054 16 19 0.0 0.0 0.00 0.00 0.00 41 1003.8
20260901071553 16 19 0.0 0.0 0.00 0.00 0.00 40 1003.8
20260901070049 17 19 0.0 0.0 0.00 0.00 0.00 38 1003.7
20260901064549 17 19 0.0 0.0 0.00 0.00 0.00 38 1003.7
20260901063106 17 18 0.0 0.0 0.00 0.00 0.00 38 1003.7
20260901061549 17 19 0.0 0.0 0.00 0.00 0.00 38 1003.6
20260901060048 17 19 0.0 0.0 0.00 0.00 0.00 38 1003.7
20260901054547 17 17 0.0 0.0 0.00 0.00 0.00 38 1003.8
20260901053054 17 16 0.0 0.0 0.00 0.00 0.00 37 1003.9
20260901051603 17 16 0.0 0.0 0.00 0.00 0.00 37 1003.9
20260901050048 17 16 0.0 0.0 0.00 0.00 0.00 36 1004.0
20260901044546 17 15 0.0 0.0 0.00 0.00 0.00 36 1003.9
20260901043053 17 15 0.0 0.0 0.00 0.00 0.00 35 1003.9
20260901041544 17 14 0.0 0.0 0.00 0.00 0.00 34 1003.9
20260901040045 18 15 0.0 0.0 0.00 0.00 0.00 32 1003.9
20260901034544 19 15 0.0 0.0 0.00 0.00 0.00 31 1003.8
20260901033104 20 14 0.0 0.0 0.00 0.00 0.00 29 1003.7
20260901031544 22 14 0.0 0.0 0.00 0.00 0.00 27 1003.6
20260901030043 23 15 0.0 0.0 0.00 0.00 0.00 27 1003.4
20260901024543 24 15 0.0 0.0 0.00 0.00 0.00 27 1003.5
20260901023049 25 15 0.0 0.0 0.00 0.00 0.00 25 1003.4
20260901021548 26 15 0.0 0.0 0.00 0.00 0.00 24 1003.5
20260901020042 27 15 0.0 0.0 0.00 0.00 0.00 23 1003.7
20260901014540 27 15 0.0 0.0 0.00 0.00 0.00 22 1003.8
20260901013137 28 16 0.0 0.0 0.00 0.00 0.00 21 1003.9
20260901011537 28 16 0.0 0.0 0.00 0.00 0.00 21 1004.0
20260901010038 28 14 0.0 0.0 0.00 0.00 0.00 20 1004.0
20260901004535 28 11 0.0 0.0 0.00 0.00 0.00 19 1004.1
20260901003037 28 14 0.0 0.0 0.00 0.00 0.00 20 1004.2
20260901001541 29 12 0.0 0.0 0.00 0.00 0.00 20 1004.4
20260901000029 29 11 0.0 0.0 0.00 0.00 0.00 21 1004.7
20260831234528 29 10 0.0 0.0 0.00 0.00 0.00 21 1004.9
20260831233027 29 12 0.0 0.0 0.00 0.00 0.00 21 1005.0
20260831231524 29 14 0.0 0.0 0.00 0.00 0.00 21 1005.3
20260831230023 29 4 0.0 0.0 0.00 0.00 0.00 21 1005.4
20260831224520 29 4 0.0 0.0 0.00 0.00 0.00 21 1005.7
20260831223017 28 12 0.0 0.0 0.00 0.00 0.00 22 1005.8
20260831221523 28 13 0.0 0.0 0.00 0.00 0.00 22 1006.1
20260831220011 28 14 0.0 0.0 0.00 0.00 0.00 23 1006.4
20260831214508 28 354 0.0 0.0 0.00 0.00 0.00 25 1006.6
20260831213010 28 354 0.0 0.0 0.00 0.00 0.00 24 1006.8
20260831211504 27 354 0.0 0.0 0.00 0.00 0.00 24 1007.1
20260831210000 27 354 0.0 0.0 0.00 0.00 0.00 25 1007.2
20260831204559 27 354 0.0 0.0 0.00 0.00 0.00 25 1007.5
20260831203104 27 343 0.0 0.0 0.00 0.00 0.00 24 1007.7
20260831201555 27 340 0.0 0.0 0.00 0.00 0.00 24 1008.0
20260831200058 26 340 0.0 0.0 0.00 0.00 0.00 27 1008.2
20260831194612 26 340 0.0 0.0 0.00 0.00 0.00 26 1008.4
20260831193053 27 321 0.0 0.0 0.00 0.00 0.00 26 1008.5
20260831191549 26 321 0.0 0.0 0.00 0.00 0.00 28 1008.9
20260831190107 26 321 0.0 0.0 0.00 0.00 0.00 26 1009.3
20260831184541 25 321 0.0 0.0 0.00 0.00 0.00 27 1009.6
20260831183036 24 314 0.0 0.0 0.00 0.00 0.00 27 1009.8
20260831181542 23 314 0.0 0.0 0.00 0.00 0.00 29 1010.0
20260831180029 23 314 0.0 0.0 0.00 0.00 0.00 30 1010.2
20260831174526 22 314 0.0 0.0 0.00 0.00 0.00 31 1010.5
20260831173023 21 314 0.0 0.0 0.00 0.00 0.00 33 1010.6
20260831171517 20 314 0.0 0.0 0.00 0.00 0.00 36 1010.8
20260831170014 19 323 0.0 0.0 0.00 0.00 0.00 38 1010.8
20260831164518 19 323 0.0 0.0 0.00 0.00 0.00 40 1010.9
20260831163011 18 328 0.0 0.0 0.00 0.00 0.00 42 1011.0
20260831161506 18 62 0.0 0.0 0.00 0.00 0.00 41 1011.2
20260831160001 17 62 0.0 0.0 0.00 0.00 0.00 43 1011.4
20260831154606 16 62 0.0 0.0 0.00 0.00 0.00 45 1011.4
20260831153108 15 280 0.0 0.0 0.00 0.00 0.00 50 1011.5
20260831151552 14 279 0.0 0.0 0.00 0.00 0.00 49 1011.6
20260831150048 13 279 0.0 0.0 0.00 0.00 0.00 53 1011.7
20260831144545 12 280 0.0 0.0 0.00 0.00 0.00 55 1011.6
20260831143044 11 279 0.0 0.0 0.00 0.00 0.00 60 1011.6
20260831141542 9 279 0.0 0.0 0.00 0.00 0.00 62 1011.3
20260831140039 9 279 0.0 0.0 0.00 0.00 0.00 63 1011.4
20260831134544 8 280 0.0 0.0 0.00 0.00 0.00 63 1011.3
20260831133037 8 280 0.0 0.0 0.00 0.00 0.00 65 1011.3
20260831131543 8 280 0.0 0.0 0.00 0.00 0.00 64 1011.2
20260831130035 8 280 0.0 0.0 0.00 0.00 0.00 63 1011.2
20260831124534 8 280 0.0 0.0 0.00 0.00 0.00 64 1011.1
20260831123032 8 281 0.0 0.0 0.00 0.00 0.00 63 1011.2
20260831121533 9 281 0.0 0.0 0.00 0.00 0.00 61 1011.3
20260831120039 8 280 0.0 0.0 0.00 0.00 0.00 62 1011.3
20260831114530 8 280 0.0 0.0 0.00 0.00 0.00 59 1011.4
20260831113029 8 280 0.0 0.0 0.00 0.00 0.00 61 1011.3
20260831111529 8 280 0.0 0.0 0.00 0.00 0.00 60 1011.3
20260831110027 8 280 0.0 0.0 0.00 0.00 0.00 61 1011.3
20260831104531 8 281 0.0 0.0 0.00 0.00 0.00 60 1011.3
20260831103024 8 280 0.0 0.0 0.00 0.00 0.00 60 1011.4
20260831101522 9 281 0.0 0.0 0.00 0.00 0.00 58 1011.5
20260831100018 10 280 0.0 0.0 0.00 0.00 0.00 61 1011.6
20260831094532 10 280 0.0 0.0 0.00 0.00 0.00 60 1011.6
20260831093022 10 280 0.0 0.0 0.00 0.00 0.00 57 1011.7
20260831091520 10 280 0.0 0.0 0.00 0.00 0.00 56 1011.9
20260831090011 10 280 0.0 0.0 0.00 0.00 0.00 58 1012.1
20260831084530 10 280 0.0 0.0 0.00 0.00 0.00 57 1012.2
20260831083009 10 281 0.0 0.0 0.00 0.00 0.00 56 1012.2
20260831081506 11 280 0.0 0.0 0.00 0.00 0.00 56 1012.2